Home   Weather   Mesquite   Past weeks

Flag for USA Past Weather in Mesquite, Texas, USA — Yesterday and Last 2 Weeks

Now
66 °F

Sunny.


Feels Like: 66 °F
Forecast: 45 / 76 °F
Wind: 5 mph from North

Location: Mesquite Metro Airport

Current Time: Apr 23, 2017 at 8:42:48 pm

Latest Report: Apr 23, 2017 at 7:50 pm


Visibility: 10 mi

Pressure: 30.01 "Hg

Humidity: 37%

Dew Point: 39 °F

Location of MesquiteLocation

Past Weather in Mesquite — Graph

°F

Mesquite Temperature Yesterday

Maximum temperature yesterday: 64 °F (at 12:15 am)
Minimum temperature yesterday: 50 °F (at 11:55 pm)
Average temperature yesterday: 57 °F

High & Low Weather Summary for the Past Weeks

 TemperatureHumidityPressure
High82 °F (Apr 20, 4:50 pm)100% (Apr 10, 8:14 pm)30.26 "Hg (Apr 10, 8:14 pm)
Low48 °F (Apr 23, 6:50 am)31% (Apr 23, 4:50 pm)29.71 "Hg (Apr 21, 7:50 pm)
Average67 °F83%30.03 "Hg
* Reported Apr 8 6:50 pm — Apr 23 6:50 pm, Mesquite, Weather by CustomWeather, © 2017

Note: Actual official high and low records may vary slightly from our data, if they occured in-between our weather recording intervals... More about our weather records

Advertising

Mesquite Weather History for the Previous 24 Hours

Scroll right to see more
 ConditionsComfort  
Time TempWeatherWind HumidityBarometerVisibility
6:50 pm
Sun, Apr 23
70 °FSunny.7 mph35%30.01 "Hg10 mi
5:50 pm72 °FSunny.13 mph31%30.04 "Hg10 mi
4:50 pm72 °FSunny.10 mph31%30.04 "Hg10 mi
3:50 pm72 °FSunny.13 mph33%30.06 "Hg10 mi
2:50 pm70 °FSunny.10 mph38%30.09 "Hg10 mi
1:50 pm68 °FSunny.14 mph38%30.10 "Hg10 mi
12:50 pm66 °FSunny.9 mph43%30.13 "Hg10 mi
11:50 am64 °FSunny.10 mph46%30.16 "Hg10 mi
10:50 am63 °FSunny.13 mph49%30.16 "Hg10 mi
9:50 am59 °FSunny.12 mph51%30.17 "Hg10 mi
8:50 am55 °FSunny.7 mph63%30.16 "Hg10 mi
7:50 am52 °FSunny.No wind72%30.16 "Hg10 mi
6:50 am48 °FSunny.6 mph82%30.15 "Hg10 mi
6:35 am49 °FClear.8 mph75%30.14 "Hg10 mi
6:15 am49 °FClear.10 mph75%30.13 "Hg10 mi
5:55 am50 °FClear.8 mph74%30.13 "Hg10 mi
5:35 am50 °FClear.10 mph72%30.13 "Hg10 mi
5:15 am51 °FClear.12 mph71%30.12 "Hg10 mi
4:55 am51 °FClear.13 mph70%30.12 "Hg10 mi
4:35 am51 °FClear.12 mph70%30.12 "Hg10 mi
4:15 am51 °FClear.9 mph70%30.12 "Hg10 mi
3:55 am51 °FClear.9 mph70%30.12 "Hg10 mi
3:35 am51 °FClear.12 mph70%30.12 "Hg10 mi
2:55 am51 °FClear.8 mph71%30.13 "Hg10 mi
2:15 am51 °FClear.9 mph71%30.13 "Hg10 mi
1:55 am51 °FClear.9 mph71%30.14 "Hg10 mi
1:35 am51 °FClear.8 mph73%30.14 "Hg10 mi
1:15 am50 °FClear.6 mph76%30.14 "Hg10 mi
12:55 am51 °FClear.8 mph76%30.15 "Hg10 mi
12:35 am50 °FClear.7 mph77%30.15 "Hg10 mi
12:15 am50 °FClear.6 mph77%30.15 "Hg10 mi
11:55 pm
Sat, Apr 22
50 °FClear.5 mph78%30.16 "Hg10 mi
11:35 pm51 °FClear.5 mph76%30.16 "Hg10 mi
11:15 pm52 °FClear.6 mph73%30.16 "Hg10 mi
10:55 pm54 °FPassing clouds.10 mph67%30.16 "Hg10 mi
10:35 pm54 °FPassing clouds.9 mph64%30.16 "Hg10 mi
10:15 pm54 °FPassing clouds.14 mph68%30.16 "Hg10 mi
9:55 pm54 °FPartly cloudy.6 mph71%30.16 "Hg10 mi
9:35 pm55 °FPartly cloudy.9 mph68%30.15 "Hg10 mi
8:55 pm56 °FPassing clouds.10 mph65%30.12 "Hg10 mi
Weather by CustomWeather, © 2017

See weather overviewHow to use our weather pages